1531432800.74,58875,20.13,73918.8,2.53,-11.07,-9.75,0,*42
1531432801.94,58876,20.13,73918.3,2.53,-11.11,-9.89,0,*45
1531432803.13,58877,20.13,73922.8,2.53,-10.85,-9.71,0,*4F
1531432804.31,58878,20.13,73924.3,2.53,-9.89,-8.75,0,*71
1531432805.53,58879,20.13,73926.3,2.53,-10.27,-9.45,0,*4E
1531432806.75,58880,20.13,73922.3,2.51,-10.85,-9.89,0,*42
1531432807.96,58881,20.13,73924.0,2.53,-11.23,-10.15,0,*71
1531432809.19,58882,20.13,73922.0,2.53,-11.37,-10.27,0,*76
1531432810.44,58883,20.13,73914.0,2.51,-11.59,-10.45,0,*79
1531432811.67,58884,20.13,73916.8,2.49,-11.59,-10.45,0,*77
1531432812.92,58885,20.13,73906.8,2.51,-11.67,-10.45,0,*72
1531432814.18,58886,20.13,73908.5,2.51,-11.67,-10.31,0,*72
1531432815.44,58887,20.13,73910.8,2.51,-11.55,-10.19,0,*78
1531432816.69,58888,20.13,73914.3,2.51,-11.51,-10.01,0,*7A
1531432817.91,58889,20.13,73916.5,2.49,-11.41,-10.19,0,*7A
1531432819.14,58890,20.13,73920.5,2.51,-11.41,-10.27,0,*76
1531432820.38,58891,20.13,73918.3,2.49,-11.55,-10.27,0,*7B
1531432821.63,58892,20.13,73920.3,2.47,-11.55,-10.23,0,*72
1531432822.86,58893,20.13,73922.3,2.49,-11.51,-10.31,0,*7A
1531432824.09,58894,20.13,73922.0,2.49,-11.55,-10.27,0,*7E
1531432825.35,58895,20.13,73920.0,2.51,-11.55,-10.31,0,*71
1531432826.58,58896,20.13,73918.0,2.49,-11.55,-10.31,0,*7B
1531432827.81,58897,20.13,73922.3,2.49,-11.55,-10.45,0,*79
1531432829.06,58898,20.13,73922.8,2.47,-11.55,-10.49,0,*74
1531432830.32,58899,20.13,73920.5,2.47,-11.55,-10.57,0,*7A
1531432831.6,58900,20.13,73918.3,2.47,-11.59,-10.63,0,*70
1531432832.88,58901,20.13,73920.0,2.47,-11.59,-10.63,0,*71
1531432834.13,58902,20.13,73922.3,2.45,-11.55,-10.63,0,*7C
1531432835.36,58903,20.13,73920.3,2.47,-11.41,-10.57,0,*7D
1531432836.62,58904,20.13,73920.5,2.45,-11.55,-10.63,0,*7A
1531432837.85,58905,20.13,73922.5,2.47,-11.41,-10.57,0,*7B
1531432839.11,58906,20.13,73922.5,2.47,-11.29,-10.57,0,*76
1531432840.34,58907,20.13,73920.8,2.45,-11.29,-10.35,0,*71
1531432841.57,58908,20.13,73924.5,2.45,-11.33,-9.93,0,*41
1531432842.8,58909,20.13,73926.3,2.45,-11.29,-9.67,0,*40
1531432844.0,58910,20.13,73924.5,2.45,-11.01,-9.75,0,*41
1531432845.2,58911,20.13,73922.3,2.45,-10.89,-10.09,0,*72
1531432846.4,58912,20.13,73922.8,2.45,-10.89,-10.31,0,*7A
1531432847.6,58913,20.13,73920.8,2.45,-10.49,-10.23,0,*74
1531432848.81,58914,20.13,73930.0,2.45,-10.19,-10.19,0,*7F
1531432850.03,58915,20.13,73926.8,2.47,-9.97,-10.35,0,*4C
1531432851.26,58916,20.13,73926.3,2.45,-9.79,-10.75,0,*49
1531432852.48,58917,20.13,73924.0,2.45,-9.67,-10.79,0,*4B
1531432853.72,58918,20.13,73930.5,2.45,-9.61,-11.07,0,*4A
1531432854.94,58919,20.13,73918.3,2.45,-9.61,-11.19,0,*44
1531432856.18,58920,20.13,73922.5,2.45,-9.61,-11.33,0,*46
1531432857.44,58921,20.13,73920.5,2.43,-9.57,-11.51,0,*40
1531432858.69,58922,20.13,73924.5,2.43,-9.71,-11.51,0,*47
1531432859.94,58923,20.13,73924.8,2.43,-9.71,-11.33,0,*42
1531432861.19,58924,20.13,73924.3,2.43,-9.45,-10.85,0,*4E
1531432862.48,58925,20.13,73926.5,2.43,-9.15,-10.67,0,*46
1531432863.74,58926,20.13,73926.8,2.43,-8.89,-10.67,0,*41
1531432865.0,58927,20.13,73920.5,2.43,-8.97,-10.63,0,*4B
1531432866.26,58928,20.13,73924.0,2.43,-9.01,-10.41,0,*4A
1531432867.52,58929,20.13,73924.0,2.43,-9.19,-10.41,0,*42
1531432868.8,58930,20.13,73924.3,2.43,-9.53,-10.63,0,*44
1531432870.03,58931,20.13,73920.8,2.43,-9.79,-10.49,0,*45
1531432871.26,58932,20.13,73922.5,2.41,-9.71,-10.41,0,*44
1531432872.49,58933,20.13,73924.5,2.41,-9.79,-10.63,0,*4D
1531432873.75,58934,20.13,73922.8,2.43,-9.79,-10.63,0,*48
1531432874.97,58935,20.13,73922.5,2.41,-9.27,-9.83,0,*76
1531432876.2,58936,20.13,73920.0,2.41,-9.01,-9.53,0,*7C
1531432877.47,58937,20.13,73922.8,2.43,-8.51,-9.45,0,*7C
1531432878.69,58938,20.13,73924.3,2.41,-7.83,-9.57,0,*72
1531432879.91,58939,20.13,73922.8,2.41,-7.83,-9.83,0,*7A
1531432881.14,58940,20.13,73924.0,2.43,-8.71,-10.85,0,*4A
1531432882.4,58941,20.13,73922.5,2.43,-9.15,-10.27,0,*40
1531432883.61,58942,20.13,73926.3,2.41,-8.85,-8.37,0,*71
1531432884.85,58943,20.13,73922.5,2.41,-7.69,-7.43,0,*71
1531432886.09,58944,20.13,73920.5,2.43,-6.63,-8.25,0,*70
1531432887.32,58945,20.13,73922.3,2.43,-8.71,-10.23,0,*43
1531432888.6,58946,20.13,73924.5,2.43,-9.57,-10.63,0,*41
1531432889.84,58947,20.13,73920.5,2.43,-9.83,-10.93,0,*46
1531432891.08,58948,20.13,73920.3,2.41,-10.67,-11.45,0,*73
1531432892.34,58949,20.13,73922.0,2.43,-10.97,-11.77,0,*7E
1531432893.55,58950,20.13,73922.3,2.41,-11.23,-12.21,0,*7A
1531432894.81,58951,20.13,73924.3,2.43,-11.45,-12.53,0,*7C
1531432896.05,58952,20.13,73916.3,2.43,-11.45,-12.47,0,*7A
1531432897.34,58953,20.13,73916.0,2.43,-11.67,-12.35,0,*7E
1531432898.6,58954,20.13,73910.8,2.43,-11.45,-12.15,0,*7B
1531432899.88,58955,20.13,73920.5,2.43,-11.59,-12.15,0,*77
1531432901.14,58956,20.13,73924.0,2.43,-11.77,-12.29,0,*77
1531432902.39,58957,20.13,73920.5,2.43,-11.89,-12.47,0,*7F
1531432903.63,58958,20.13,73922.0,2.41,-12.03,-12.35,0,*76
1531432904.88,58959,20.13,73922.0,2.43,-12.03,-12.35,0,*75
1531432906.12,58960,20.13,73920.3,2.41,-11.93,-12.21,0,*72
1531432907.38,58961,20.13,73916.3,2.41,-11.93,-12.15,0,*74
1531432908.64,58962,20.13,73922.5,2.43,-12.03,-12.07,0,*7C
1531432909.87,58963,20.13,73920.0,2.41,-12.03,-12.07,0,*7F
1531432911.13,58964,20.13,73922.5,2.43,-12.03,-11.93,0,*74
1531432912.37,58965,20.13,73920.0,2.41,-12.21,-12.07,0,*79
1531432913.63,58966,20.13,73920.0,2.43,-12.35,-12.03,0,*79
1531432914.88,58967,20.13,73922.8,2.43,-12.43,-11.93,0,*73
1531432916.12,58968,20.13,73926.3,2.41,-12.47,-11.89,0,*71
1531432917.34,58969,20.13,73920.5,2.41,-12.47,-11.81,0,*78
1531432918.57,58970,20.13,73920.3,2.41,-12.43,-11.67,0,*7C
1531432919.86,58971,20.13,73916.3,2.43,-12.53,-11.63,0,*7A
1531432921.12,58972,20.13,73920.0,2.43,-12.21,-11.59,0,*75
1531432922.36,58973,20.13,73918.8,2.41,-12.21,-11.51,0,*7E
1531432923.62,58974,20.13,73920.0,2.43,-11.23,-10.63,0,*7A
1531432924.86,58975,20.13,73922.5,2.41,-11.93,-10.97,0,*79
1531432926.11,58976,20.13,73922.0,2.41,-11.81,-11.37,0,*72
1531432927.34,58977,20.13,73922.5,2.41,-12.35,-11.23,0,*7A
1531432928.57,58978,20.13,73924.0,2.41,-12.03,-10.79,0,*7E
1531432929.84,58979,20.13,73924.8,2.41,-11.93,-10.63,0,*7E
1531432931.04,58980,20.13,73924.8,2.41,-12.47,-10.85,0,*7A
1531432932.27,58981,20.13,73926.5,2.41,-12.43,-10.79,0,*7C
1531432933.5,58982,20.13,73924.0,2.41,-12.75,-10.85,0,*79
1531432934.72,58983,20.13,73926.0,2.41,-12.79,-10.85,0,*74
1531432935.99,58984,20.13,73926.5,2.43,-12.93,-10.67,0,*79
1531432937.25,58985,20.13,73924.0,2.41,-13.01,-10.79,0,*7F
1531432938.51,58986,20.13,73922.5,2.41,-13.01,-10.67,0,*73
1531432939.75,58987,20.13,73920.8,2.41,-13.19,-10.79,0,*74
1531432941.01,58988,20.13,73922.3,2.41,-13.29,-10.79,0,*78
1531432942.27,58989,20.13,73916.8,2.41,-13.33,-10.67,0,*7D
1531432943.5,58990,20.13,73914.3,2.41,-13.43,-10.63,0,*76
1531432944.71,58991,20.13,73916.5,2.41,-13.43,-10.49,0,*7F
1531432945.93,58992,20.13,73922.8,2.41,-13.19,-10.35,0,*78
1531432947.16,58993,20.13,73920.8,2.41,-13.29,-10.27,0,*79
1531432948.37,58994,20.13,73920.5,2.41,-13.19,-10.23,0,*79
1531432949.62,58995,20.13,73920.5,2.39,-13.37,-10.05,0,*7F
1531432950.85,58996,20.13,73924.8,2.39,-13.11,-9.93,0,*4F
1531432952.09,58997,20.13,73924.8,2.39,-13.33,-9.93,0,*4E
1531432953.31,58998,20.13,73920.5,2.39,-13.47,-9.93,0,*42
1531432954.53,58999,20.13,73922.3,2.39,-13.65,-9.89,0,*48
1531432955.75,59000,20.13,73916.3,2.37,-13.61,-9.89,0,*4A
1531432956.98,59001,20.13,73916.5,2.39,-13.51,-9.71,0,*41
1531432958.22,59002,20.13,73918.8,2.39,-13.47,-9.61,0,*44
1531432959.47,59003,20.13,73920.0,2.37,-12.83,-9.15,0,*41
1531432960.71,59004,20.13,73920.8,2.39,-13.55,-9.45,0,*47
1531432961.93,59005,20.13,73922.3,2.39,-13.55,-9.23,0,*46
1531432963.18,59006,20.13,73918.8,2.39,-13.55,-9.11,0,*44
1531432964.4,59007,20.13,73920.3,2.39,-13.55,-9.01,0,*44
1531432965.63,59008,20.13,73920.0,2.39,-13.55,-8.89,0,*4A
1531432966.84,59009,20.13,73920.5,2.39,-13.55,-8.63,0,*4F
1531432968.06,59010,20.13,73916.5,2.39,-13.69,-8.63,0,*48
1531432969.25,59011,20.13,73916.3,2.37,-13.55,-8.33,0,*4D
1531432970.47,59012,20.13,73916.8,2.39,-13.65,-8.25,0,*44
1531432971.68,59013,20.13,73918.8,2.39,-13.65,-8.17,0,*44
1531432972.92,59014,20.13,73918.5,2.39,-13.65,-7.95,0,*46
1531432974.15,59015,20.13,73920.0,2.39,-13.55,-7.83,0,*43
1531432975.35,59016,20.13,73916.3,2.37,-13.51,-7.53,0,*47
1531432976.6,59017,20.13,73918.3,2.39,-13.23,-7.43,0,*4C
1531432977.84,59018,20.13,73918.8,2.39,-12.47,-6.93,0,*4C
1531432979.09,59019,20.06,73916.0,2.39,-12.53,-6.51,0,*46
1531432980.32,59020,20.13,73918.8,2.41,-13.01,-6.59,0,*4D
1531432981.55,59021,20.13,73922.0,2.41,-13.29,-6.47,0,*49
1531432982.8,59022,20.13,73922.0,2.43,-13.07,-6.23,0,*46
1531432984.02,59023,20.13,73922.3,2.41,-12.89,-5.85,0,*4D
1531432985.28,59024,20.13,73922.8,2.41,-12.15,-5.15,0,*46
1531432986.53,59025,20.13,73922.5,2.41,-11.63,-4.93,0,*4A
1531432987.76,59026,20.13,73920.0,2.41,-11.45,-4.81,0,*4E
1531432989.01,59027,20.13,73922.0,2.41,-11.77,-4.93,0,*4D
1531432990.27,59028,20.13,73920.8,2.43,-11.67,-4.65,0,*48
1531432991.48,59029,20.13,73924.3,2.41,-11.45,-4.61,0,*4F
1531432992.73,59030,20.13,73922.5,2.43,-11.37,-4.37,0,*43
1531432993.95,59031,20.13,73922.3,2.41,-11.81,-4.37,0,*4D
1531432995.2,59032,20.13,73924.0,2.41,-11.51,-4.01,0,*46
1531432996.46,59033,20.13,73920.8,2.43,-11.45,-4.01,0,*40
1531432997.72,59034,20.13,73922.3,2.43,-11.37,-3.71,0,*42
1531432998.97,59035,20.13,73920.3,2.41,-11.07,-3.47,0,*47
1531433000.17,59036,20.13,73924.8,2.41,-8.63,-2.95,0,*70
1531433001.41,59037,20.13,73924.5,2.43,-9.45,-3.35,0,*7D
1531433002.66,59038,20.13,73924.5,2.41,-7.95,-2.75,0,*76
1531433003.88,59039,20.13,73926.5,2.41,-7.83,-2.71,0,*74
1531433005.1,59040,20.13,73920.3,2.41,-6.63,-2.23,0,*72
1531433006.35,59041,20.13,73920.5,2.41,-7.65,-2.63,0,*70
1531433007.6,59042,20.13,73922.8,2.41,-7.65,-2.11,0,*76
1531433008.82,59043,20.13,73920.5,2.41,-6.77,-1.87,0,*79
1531433010.06,59044,20.13,73920.8,2.43,-6.05,-1.47,0,*75
1531433011.34,59045,20.13,73924.5,2.43,-5.81,-1.43,0,*7F
1531433012.61,59046,20.13,73922.5,2.43,-5.93,-1.43,0,*7F
1531433013.86,59047,20.13,73922.3,2.43,-5.85,-1.33,0,*7E
1531433015.08,59048,20.13,73922.3,2.43,-5.55,-1.25,0,*7B
1531433016.35,59049,20.13,73924.0,2.43,-5.19,-1.09,0,*7C
1531433017.62,59050,20.13,73922.8,2.43,-4.89,-1.09,0,*7C
1531433018.85,59051,20.13,73922.5,2.47,-6.01,-1.09,0,*7B
1531433020.04,59052,20.13,73922.8,2.45,-6.43,-1.17,0,*73
1531433021.25,59053,20.13,73920.5,2.45,-6.35,-0.93,0,*4E
1531433022.51,59054,20.13,73924.8,2.47,-6.19,-0.93,0,*45
1531433023.73,59055,20.13,73924.3,2.45,-5.93,-0.73,0,*49
1531433024.92,59056,20.06,73920.3,2.45,-5.55,-0.53,0,*42
1531433026.16,59057,20.13,73924.3,2.47,-5.65,-0.45,0,*45
1531433027.36,59058,20.13,73922.5,2.47,-6.05,-0.45,0,*4F
1531433028.62,59059,20.13,73924.5,2.47,-5.77,-0.23,0,*48
1531433029.8,59060,20.13,73926.3,2.45,-4.99,0.05,0,*58
1531433031.03,59061,20.13,73928.0,2.47,-4.33,0.29,0,*65
1531433032.26,59062,20.13,73924.3,2.47,-3.71,0.43,0,*6B
1531433033.49,59063,20.13,73926.8,2.47,-3.47,0.43,0,*6F
1531433034.72,59064,20.13,73924.3,2.47,-2.91,0.55,0,*65
1531433035.95,59065,20.13,73924.0,2.47,-3.07,0.51,0,*6E
1531433037.18,59066,20.13,73926.5,2.47,-3.31,0.51,0,*68
1531433038.42,59067,20.13,73922.0,2.47,-2.95,0.55,0,*62
1531433039.62,59068,20.13,73924.3,2.49,-2.27,0.71,0,*6C
1531433040.86,59069,20.13,73926.8,2.49,-1.99,0.59,0,*61
1531433042.06,59070,20.06,73920.3,2.49,-1.51,0.79,0,*6F
1531433043.27,59071,20.13,73926.5,2.49,-1.25,0.91,0,*6B
1531433044.5,59072,20.13,73924.8,2.49,-1.01,0.91,0,*6E
1531433045.7,59073,20.13,73924.8,2.49,-0.77,0.95,0,*5B
1531433046.92,59074,20.13,73924.0,2.51,-0.77,0.79,0,*57
1531433048.12,59075,20.13,73924.8,2.49,-0.81,0.79,0,*56
1531433049.32,59076,20.13,73922.3,2.49,-0.81,0.67,0,*5A
1531433050.53,59077,20.13,73926.8,2.49,-0.77,0.59,0,*5F
1531433051.75,59078,20.13,73926.3,2.51,-0.53,0.59,0,*5F
1531433052.96,59079,20.13,73920.3,2.49,-0.53,0.59,0,*57
1531433054.16,59080,20.13,73920.8,2.49,-0.49,0.59,0,*5A
1531433055.35,59081,20.13,73920.0,2.49,-0.19,0.67,0,*53
1531433056.55,59082,20.13,73918.3,2.49,-0.07,0.71,0,*68
1531433057.74,59083,20.13,73918.3,2.49,0.09,0.71,0,*4A
1531433058.95,59084,20.06,73916.5,2.49,0.17,0.71,0,*72
1531433060.19,59085,20.13,73916.0,2.51,0.37,0.91,0,*76
1531433061.4,59086,20.13,73920.8,2.49,0.59,0.95,0,*70
1531433062.62,59087,20.13,73922.3,2.49,0.55,0.83,0,*7A
1531433063.87,59088,20.13,73922.5,2.51,0.71,0.83,0,*7A
1531433065.08,59089,20.13,73920.5,2.51,0.79,0.97,0,*76
1531433066.3,59090,20.13,73920.8,2.51,0.95,1.05,0,*46
1531433067.5,59091,20.13,73920.3,2.51,1.05,1.05,0,*7F
1531433068.74,59092,20.13,73922.0,2.53,1.09,1.09,0,*7E
1531433069.98,59093,20.13,73924.5,2.53,1.21,1.21,0,*7F
1531433071.22,59094,20.13,73924.0,2.53,1.33,1.21,0,*7B
1531433072.44,59095,20.06,73920.0,2.53,1.43,1.13,0,*7C
1531433073.64,59096,20.13,73920.8,2.53,1.43,1.01,0,*7C
1531433074.87,59097,20.06,73922.0,2.53,1.25,0.75,0,*4F
1531433076.1,59098,20.13,73924.0,2.53,1.09,0.37,0,*48
1531433077.32,59099,20.13,73924.3,2.53,0.87,0.13,0,*78
1531433078.51,59100,20.13,73924.0,2.53,0.83,0.01,0,*4E
1531433079.72,59101,20.13,73922.3,2.57,0.63,-0.23,0,*58
1531433080.92,59102,20.13,73922.0,2.53,0.41,-0.33,0,*5E
1531433082.12,59103,20.13,73916.8,2.53,0.41,-0.49,0,*52
1531433083.34,59104,20.13,73918.3,2.53,0.25,-0.85,0,*57
1531433084.56,59105,20.13,73912.3,2.57,0.25,-0.97,0,*51
1531433085.77,59106,20.13,73912.5,2.53,0.13,-1.13,0,*6E
1531433086.98,59107,20.13,73916.3,2.53,-0.03,-1.35,0,*77
1531433088.19,59108,20.13,73916.0,2.53,-0.27,-1.63,0,*4D
1531433089.4,59109,20.13,73916.3,2.53,-0.61,-1.87,0,*44
1531433090.61,59110,20.06,73916.5,2.53,-0.77,-1.99,0,*44
1531433091.82,59111,20.13,73916.0,2.53,-1.09,-2.27,0,*7B
1531433093.01,59112,20.06,73918.0,2.57,-1.25,-2.35,0,*71
1531433094.23,59113,20.06,73916.5,2.53,-1.39,-2.35,0,*79
1531433095.42,59114,20.13,73918.3,2.53,-1.63,-2.39,0,*7D
1531433096.6,59115,20.13,73922.5,2.57,-1.67,-2.43,0,*71
1531433097.82,59116,20.06,73920.3,2.53,-1.83,-2.35,0,*7D
1531433099.06,59117,20.13,73922.3,2.53,-2.07,-2.47,0,*76
1531433100.31,59118,20.13,73922.3,2.53,-2.47,-2.59,0,*72
1531433101.56,59119,20.06,73916.0,2.53,-2.63,-2.63,0,*7C
1531433102.77,59120,20.13,73918.3,2.53,-2.99,-2.75,0,*74
1531433103.96,59121,20.13,73918.8,2.53,-3.03,-2.87,0,*7A
1531433105.16,59122,20.06,73918.0,2.53,-3.35,-2.99,0,*73
1531433106.35,59123,20.06,73918.3,2.53,-3.39,-3.11,0,*7F
1531433107.54,59124,20.13,73924.0,2.53,-3.39,-3.23,0,*79
1531433108.77,59125,20.13,73922.0,2.53,-4.01,-3.47,0,*76
1531433109.97,59126,20.13,73920.0,2.57,-4.21,-3.31,0,*72
1531433111.15,59127,20.06,73920.0,2.53,-4.37,-3.11,0,*72
1531433112.34,59128,20.06,73920.3,2.53,-4.17,-2.95,0,*72
1531433113.54,59129,20.13,73924.8,2.53,-4.25,-2.83,0,*75
1531433114.75,59130,20.13,73926.0,2.57,-4.09,-2.59,0,*70
1531433115.94,59131,20.06,73922.8,2.53,-3.91,-2.27,0,*7A
1531433117.18,59132,20.13,73922.3,2.53,-3.71,-2.11,0,*72
1531433118.43,59133,20.13,73924.0,2.57,-3.59,-1.91,0,*76
1531433119.64,59134,20.13,73930.0,2.53,-3.23,-1.91,0,*78
1531433120.86,59135,20.13,73926.5,2.53,-3.11,-1.99,0,*70
1531433122.07,59136,20.06,73922.3,2.57,-2.91,-2.07,0,*7A
1531433123.27,59137,20.06,73918.3,2.53,-2.99,-2.23,0,*71
1531433124.48,59138,20.13,73918.3,2.53,-3.23,-2.47,0,*7C
1531433125.72,59139,20.06,73914.5,2.57,-3.55,-2.67,0,*7A
1531433126.95,59140,20.13,73912.8,2.53,-3.91,-2.63,0,*7C
1531433128.17,59141,20.13,73912.3,2.57,-3.95,-2.59,0,*74
1531433129.39,59142,20.06,73912.0,2.53,-4.13,-2.71,0,*70
1531433130.63,59143,20.13,73914.3,2.53,-4.01,-2.59,0,*78
1531433131.85,59144,20.13,73916.5,2.53,-3.87,-2.55,0,*7A
1531433133.07,59145,20.13,73918.8,2.53,-3.51,-2.27,0,*75
1531433134.31,59146,20.06,73914.8,2.57,-3.59,-2.59,0,*73
1531433135.53,59147,20.06,73918.8,2.59,-3.87,-2.83,0,*78
1531433136.72,59148,20.13,73922.3,2.57,-3.87,-2.95,0,*7E
1531433137.94,59149,20.13,73920.8,2.53,-3.59,-2.87,0,*7B
1531433139.13,59150,20.06,73918.5,2.53,-3.27,-2.83,0,*7E
1531433140.32,59151,20.13,73920.8,2.57,-2.95,-2.79,0,*76
1531433141.53,59152,20.06,73920.0,2.57,-2.55,-2.83,0,*7C
1531433142.71,59153,20.13,73920.3,2.53,-2.79,-3.23,0,*7C
1531433143.92,59154,20.06,73920.8,2.57,-2.71,-3.19,0,*7E
1531433145.16,59155,20.13,73922.5,2.59,-2.43,-2.55,0,*79
1531433146.38,59156,20.13,73926.0,2.61,-2.07,-2.39,0,*7B
1531433147.59,59157,20.06,73922.8,2.57,-2.31,-2.67,0,*71
1531433148.8,59158,20.06,73926.8,2.57,-2.67,-2.99,0,*7C
1531433149.99,59159,20.13,73928.8,2.61,-2.91,-3.07,0,*77
1531433151.2,59160,20.13,73924.8,2.59,-3.07,-3.35,0,*79
1531433152.39,59161,20.13,73924.5,2.61,-3.15,-3.83,0,*7D
1531433153.65,59162,20.06,73926.3,2.59,-3.59,-4.77,0,*71
1531433154.87,59163,20.06,73922.8,2.59,-4.57,-5.43,0,*7F
1531433156.13,59164,20.06,73926.8,2.59,-5.65,-6.23,0,*7D
1531433157.33,59165,20.13,73928.8,2.61,-6.27,-6.09,0,*7A
1531433158.55,59166,20.06,73924.5,2.61,-6.55,-6.27,0,*70
1531433159.76,59167,20.13,73922.8,2.61,-6.93,-6.43,0,*79
1531433161.01,59168,20.06,73922.8,2.59,-7.35,-6.81,0,*7E
1531433162.28,59169,20.13,73922.0,2.59,-7.73,-6.97,0,*7A
1531433163.51,59170,20.06,73920.0,2.59,-8.03,-6.85,0,*79
1531433164.72,59171,20.06,73918.0,2.61,-8.67,-6.93,0,*76
1531433165.94,59172,20.06,73922.5,2.59,-8.89,-6.85,0,*79
1531433167.15,59173,20.13,73922.8,2.59,-9.23,-6.73,0,*70
1531433168.4,59174,20.06,73920.8,2.59,-9.37,-6.59,0,*7A
1531433169.59,59175,20.06,73922.0,2.53,-9.31,-6.39,0,*71
1531433170.8,59176,20.06,73920.0,2.57,-8.97,-6.23,0,*70
1531433172.01,59177,20.06,73922.0,2.59,-8.71,-6.05,0,*73
1531433173.21,59178,20.06,73920.0,2.57,-8.97,-6.31,0,*7D
1531433174.4,59179,20.06,73916.0,2.53,-8.85,-6.09,0,*70
1531433175.62,59180,20.06,73918.5,2.57,-8.41,-5.89,0,*71
1531433176.83,59181,20.06,73918.0,2.53,-8.21,-5.69,0,*7C
1531433178.08,59182,20.06,73916.8,2.57,-7.73,-5.23,0,*7D
1531433179.3,59183,20.06,73918.8,2.53,-7.11,-4.77,0,*7C
1531433180.5,59184,20.13,73922.5,2.57,-6.35,-4.37,0,*7C
1531433181.71,59185,20.13,73922.5,2.53,-5.69,-4.17,0,*71
1531433182.9,59186,20.06,73920.8,2.57,-5.35,-4.09,0,*70
1531433184.11,59187,20.06,73920.8,2.53,-5.19,-4.13,0,*70
1531433185.33,59188,20.06,73920.0,2.53,-5.07,-4.17,0,*74
1531433186.51,59189,20.06,73916.8,2.53,-4.99,-4.13,0,*77
1531433187.74,59190,20.06,73918.8,2.53,-4.93,-4.01,0,*76
1531433188.99,59191,20.13,73920.3,2.53,-5.03,-4.01,0,*7F
1531433190.17,59192,20.06,73920.0,2.53,-5.47,-4.17,0,*7B
1531433191.37,59193,20.06,73920.8,2.53,-6.09,-4.41,0,*70
1531433192.56,59194,20.06,73920.3,2.53,-6.73,-4.49,0,*72
1531433193.75,59195,20.06,73920.8,2.53,-7.15,-4.37,0,*7B
1531433194.97,59196,20.06,73920.8,2.53,-7.31,-4.25,0,*7D
1531433196.17,59197,20.13,73920.5,2.57,-7.39,-3.87,0,*7F
1531433197.4,59198,20.13,73920.0,2.53,-7.39,-3.51,0,*7F
1531433198.59,59199,20.13,73920.5,2.53,-7.15,-3.11,0,*74
1531433199.81,59200,20.06,73918.3,2.53,-6.77,-2.75,0,*71
1531433201.02,59201,20.06,73918.8,2.53,-6.27,-2.39,0,*7D
1531433202.24,59202,20.06,73918.8,2.53,-5.93,-2.27,0,*7D
1531433203.43,59203,20.06,73918.8,2.53,-5.47,-2.15,0,*74
1531433204.67,59204,20.06,73918.3,2.53,-5.19,-2.11,0,*7C
1531433205.91,59205,20.06,73916.5,2.53,-4.81,-1.99,0,*7E
1531433207.13,59206,20.06,73920.0,2.53,-4.65,-1.87,0,*78
1531433208.32,59207,20.06,73916.8,2.53,-4.29,-1.71,0,*78
1531433209.57,59208,20.13,73920.5,2.57,-4.01,-1.35,0,*79
1531433210.77,59209,20.06,73918.5,2.57,-3.75,-1.21,0,*79
1531433211.99,59210,20.13,73918.8,2.53,-3.35,-1.01,0,*73
1531433213.17,59211,20.06,73918.8,2.53,-2.87,-0.73,0,*4E
1531433214.38,59212,20.13,73916.0,2.53,-2.27,-0.27,0,*46
1531433215.58,59213,20.06,73918.3,2.53,-1.87,0.01,0,*57
1531433216.79,59214,20.06,73918.0,2.53,-1.63,0.21,0,*68
1531433218.02,59215,20.06,73914.5,2.53,-1.13,0.37,0,*69
1531433219.22,59216,20.06,73914.3,2.57,-0.73,0.63,0,*58
1531433220.42,59217,20.06,73912.5,2.53,-0.37,0.71,0,*5E
1531433221.61,59218,20.06,73916.5,2.57,0.05,0.91,0,*47
1531433222.83,59219,20.06,73916.5,2.53,0.29,1.09,0,*4C
1531433224.05,59220,20.06,73918.3,2.53,0.75,1.13,0,*44
1531433225.27,59221,20.13,73920.0,2.57,0.83,1.25,0,*4D
1531433226.49,59222,20.06,73918.3,2.53,0.87,1.13,0,*4B
1531433227.69,59223,20.06,73918.0,2.53,0.97,1.13,0,*4B
1531433228.89,59224,20.06,73918.0,2.57,1.01,1.13,0,*76
1531433230.07,59225,20.06,73916.0,2.53,1.01,1.05,0,*74
1531433231.25,59226,20.06,73916.8,2.57,0.97,1.01,0,*49
1531433232.42,59227,20.06,73920.3,2.57,1.01,1.01,0,*76
1531433233.65,59228,20.06,73918.0,2.59,1.13,1.01,0,*74
1531433234.82,59229,20.06,73918.8,2.57,1.05,0.97,0,*42
1531433236.03,59230,20.06,73914.3,2.57,1.05,0.91,0,*4C
1531433237.25,59231,20.06,73918.5,2.59,1.05,0.79,0,*45
1531433238.47,59232,20.06,73918.5,2.59,1.05,0.63,0,*4D
1531433239.7,59233,20.06,73918.8,2.59,1.05,0.51,0,*4D
1531433240.92,59234,20.06,73918.8,2.59,1.01,0.33,0,*4A
1531433242.14,59235,20.06,73916.8,2.59,0.91,0.01,0,*42
1531433243.34,59236,20.06,73918.3,2.59,0.97,-0.07,0,*6C
1531433244.56,59237,20.06,73916.8,2.61,0.95,-0.27,0,*56
1531433245.79,59238,20.06,73918.3,2.59,0.79,-0.57,0,*57
1531433247.03,59239,20.06,73916.5,2.59,0.75,-0.93,0,*52
1531433248.25,59240,20.06,73916.8,2.59,0.51,-1.29,0,*6A
1531433249.45,59241,20.06,73916.0,2.61,0.43,-1.39,0,*62
1531433250.67,59242,20.06,73918.3,2.61,0.33,-1.87,0,*63
1531433251.87,59243,20.06,73918.8,2.59,0.05,-2.19,0,*58
1531433253.11,59244,20.06,73918.3,2.59,-0.11,-2.47,0,*4C
1531433254.34,59245,20.06,73916.3,2.59,-0.41,-2.59,0,*47
1531433255.55,59246,20.06,73916.5,2.61,-0.57,-2.75,0,*46
1531433256.74,59247,20.06,73916.5,2.61,-0.77,-3.07,0,*41
1531433257.95,59248,20.06,73918.8,2.61,-1.05,-3.27,0,*78
1531433259.22,59249,20.06,73916.8,2.59,-1.43,-3.59,0,*79
1531433260.43,59250,20.06,73916.5,2.61,-1.79,-4.01,0,*79
1531433261.67,59251,20.13,73920.0,2.59,-2.07,-4.09,0,*71
1531433262.88,59252,20.06,73918.8,2.61,-2.07,-4.09,0,*79
1531433264.07,59253,20.06,73918.8,2.61,-2.27,-4.21,0,*70
1531433265.28,59254,20.06,73916.5,2.61,-2.55,-4.45,0,*70
1531433266.5,59255,20.06,73916.0,2.59,-2.95,-4.65,0,*74
1531433267.71,59256,20.06,73918.5,2.59,-3.19,-4.99,0,*71
1531433268.97,59257,20.06,73918.8,2.63,-3.55,-5.11,0,*70
1531433270.19,59258,20.06,73918.3,2.63,-3.95,-5.35,0,*75
1531433271.42,59259,20.06,73918.0,2.59,-4.37,-5.77,0,*74
1531433272.62,59260,20.06,73916.5,2.61,-4.93,-6.39,0,*72
1531433273.83,59261,20.06,73916.5,2.61,-5.61,-6.89,0,*74
1531433275.02,59262,20.06,73912.5,2.61,-5.97,-7.83,0,*75
1531433276.29,59263,20.06,73918.3,2.59,-6.93,-9.49,0,*70
1531433277.51,59264,20.06,73916.0,2.59,-8.45,-10.93,0,*4D
1531433278.75,59265,20.06,73916.8,2.59,-10.09,-11.33,0,*76
1531433280.0,59266,20.06,73916.5,2.59,-10.63,-11.15,0,*7D
1531433281.2,59267,20.06,73916.0,2.61,-10.31,-10.89,0,*74
1531433282.43,59268,20.06,73918.3,2.59,-10.35,-10.49,0,*78
1531433283.68,59269,20.06,73920.8,2.59,-10.63,-10.23,0,*76
1531433284.9,59270,20.06,73918.0,2.59,-10.53,-9.93,0,*4E
1531433286.11,59271,20.06,73918.8,2.59,-10.53,-9.79,0,*4B
1531433287.37,59272,20.06,73918.5,2.59,-10.63,-10.23,0,*7C
1531433288.62,59273,20.06,73920.3,2.59,-11.01,-11.29,0,*73
1531433289.9,59274,20.06,73922.8,2.59,-11.85,-11.89,0,*72
1531433291.18,59275,20.06,73922.5,2.59,-12.75,-12.71,0,*7B
1531433292.46,59276,20.06,73922.5,2.59,-13.29,-13.01,0,*76
1531433293.68,59277,20.06,73924.0,2.59,-13.55,-13.15,0,*79
1531433294.88,59278,20.06,73924.8,2.57,-13.73,-13.11,0,*78
1531433296.08,59279,20.06,73924.3,2.53,-13.73,-12.89,0,*7D
1531433297.32,59280,20.13,73926.0,2.53,-13.83,-13.19,0,*7C
1531433298.54,59281,20.13,73926.8,2.53,-14.61,-13.01,0,*7F
1531433299.75,59282,20.06,73924.0,2.53,-14.93,-13.15,0,*74
1531433301.0,59283,20.06,73924.3,2.57,-15.21,-12.75,0,*7E
1531433302.22,59284,20.06,73922.5,2.53,-14.93,-12.29,0,*7C
1531433303.48,59285,20.06,73922.8,2.53,-14.51,-12.53,0,*7E
1531433304.7,59286,20.06,73920.3,2.53,-14.93,-13.15,0,*70
1531433305.92,59287,20.13,73924.3,2.53,-16.23,-14.23,0,*7A
1531433307.18,59288,20.06,73920.3,2.53,-17.17,-14.79,0,*7C
1531433308.44,59289,20.06,73920.8,2.49,-17.59,-14.97,0,*7C
1531433309.67,59290,20.06,73920.0,2.49,-17.87,-14.83,0,*72
1531433310.9,59291,20.06,73916.8,2.53,-17.83,-14.79,0,*79
1531433312.15,59292,20.06,73916.3,2.49,-17.97,-14.97,0,*74